Starlink 5553

operational
NORAD ID: 56333 Int'l Des: 2023-058 Owner: SPXS Country: US Constellation: starlink
LEOCIRCULARRETROGRADESSO

Starlink 5553について

説明を読み込み中...

リアルタイム位置

3D地球を読み込み中...

次回通過

高度履歴

Altitude vs Time

uPlot chart will show altitude changes over time

軌道要素

1 56333U 23058S 25303.95936275 -.00000346 00000-0 -19768-4 0 9997
2 56333 97.6027 303.3119 0001926 90.1950 269.9497 15.05659338138671
Epoch: Oct 30, 2025 • Age: 17 hours

現在のステータス

高度 562.2 km
速度 7.58 km/s
衛星直下点 -31.61°S, 159.56°W
打ち上げ日 Apr 27, 2023
運用期間 2.5 years
タイプ internet

技術仕様

分類 Payload
質量 300.00 kg
乾燥質量 260.00 kg
総質量 300.00 kg
長さ 0.20 m
直径 2.80 m
スパン 9.00 m
形状 Box + pan
製造者 SPXS
バスタイプ Starlink
フェーズステータス In Orbit
所有者/国 SPXS/US

大規模コンステレーション

Loading constellations...